Location: Mahannah Oil Field
(37.4664°N, 96.6003°W)
Time: 15:52:25
(UTC+00:00)

X-37B - Visible Passes

Search period start: 25 November 2020 00:00
Search period end: 05 December 2020 00:00
Orbit: 384 x 389 km, 45.0° (Epoch: 12 November)

Date Brightness Start Highest point End Pass type
(mag) Time Alt. Az. Time Alt. Az. Time Alt. Az.
25 Nov 3.7 01:31:55 10° SW 01:32:27 14° SW 01:32:27 14° SW visible
26 Nov 1.4 00:33:38 10° SSW 00:36:33 35° SE 00:36:47 35° SE visible
26 Nov 2.5 23:35:52 10° S 23:38:08 18° SE 23:40:25 10° E visible
27 Nov 2.4 01:11:23 10° WSW 01:13:19 32° W 01:13:19 32° W visible
28 Nov 0.6 00:12:47 10° SW 00:15:56 73° SSE 00:17:30 27° ENE visible
29 Nov 1.7 00:51:04 10° W 00:53:55 36° NNW 00:53:55 36° NNW visible
29 Nov 0.9 23:52:15 10° WSW 23:55:23 60° NNW 23:58:00 14° NE visible
30 Nov 3.8 01:29:52 10° WNW 01:30:16 12° NW 01:30:16 12° NW visible
01 Dec 2.0 00:30:54 10° WNW 00:33:38 26° NNW 00:34:20 24° N visible
01 Dec 1.6 23:31:56 10° W 23:34:55 36° NNW 23:37:53 10° NE visible
02 Dec 3.2 01:09:39 10° NW 01:10:39 15° NW 01:10:39 15° NW visible
03 Dec 2.3 00:10:44 10° WNW 00:13:17 22° N 00:14:41 16° NNE visible
04 Dec 2.6 00:49:17 10° NW 00:51:00 19° NNW 00:51:00 19° NNW visible
04 Dec 2.4 23:50:30 10° NW 23:52:58 20° N 23:55:05 12° NE visible
